Warrenton, OR

4:35 AM PDT on October 01, 2016 (GMT -0700)
Astoria Regional

Weather History for KAST - April, 2013

Change the Weather History Date:

Thursday, April 25, 2013

  Actual Average Record
Temperature  
Mean Temperature 51 °F 50 °F  
Max Temperature 60 °F 58 °F 83 °F (1941)
Min Temperature 41 °F 42 °F 29 °F (1955)
Degree Days  
Heating Degree Days 14 15  
Month to date heating degree days 407 414  
Since 1 July heating degree days 4360 4334  
Cooling Degree Days 0 0  
Month to date cooling degree days 0 0  
Year to date cooling degree days 0 0  
Moisture  
Dew Point 45 °F    
Average Humidity 80    
Maximum Humidity 93    
Minimum Humidity 67    
Precipitation  
Precipitation 0.00 in 0.15 in 1.24 in (1892)
Month to date precipitation 6.44 4.50  
Year to date precipitation 25.72 29.34  
Snow  
Snow 0.00 in - - ()
Month to date snowfall 0.0  
Snow Depth 0.00 in    
Sea Level Pressure  
Sea Level Pressure 30.13 in    
Wind  
Wind Speed 6 mph (WNW)    
Max Wind Speed 15 mph    
Max Gust Speed 18 mph    
Visibility 10 miles    
Events      
T = Trace of Precipitation, MM = Missing Value Source: NWS Daily Summary

Daily Weather History Graph

Daily Weather History Graph

Search for Another Location

Airport or City:

Trip Planner

Search our weather history database for the weather conditions in past years. The results will help you decide how hot, cold, wet, or windy it might be!

Date:

Astronomy

Apr. 25, 2013 Rise Set
Actual Time 6:11 AM PDT 8:16 PM PDT
Civil Twilight 5:38 AM PDT 8:49 PM PDT
Nautical Twilight 4:58 AM PDT 9:29 PM PDT
Astronomical Twilight 4:14 AM PDT 10:14 PM PDT
Moon 8:38 PM PDT (4/25) 5:58 AM PDT (4/25)
Length of Visible Light 15h 10m
Length of Day
14h 05m
Full, 100% of the Moon is Illuminated
Apr 25
Full
Apr 25
Full
May 2
Last Quarter
May 9
New
May 17
First Quarter

Hourly Weather History & Observations

Time (PDT) Temp. Windchill Dew Point Humidity Pressure Visibility Wind Dir Wind Speed Gust Speed Precip Events Conditions
12:55 AM 45.0 °F - 39.9 °F 82% 30.09 in 10.0 mi Calm Calm - N/A   Clear
1:55 AM 45.0 °F - 41.0 °F 86% 30.07 in 10.0 mi Calm Calm - N/A   Clear
2:55 AM 48.9 °F - 46.9 °F 93% 30.06 in 10.0 mi NW 9.2 mph - N/A   Clear
3:55 AM 42.1 °F 40.2 °F 39.9 °F 92% 30.06 in 10.0 mi SSE 3.5 mph - N/A   Clear
4:55 AM 42.1 °F - 39.9 °F 92% 30.06 in 10.0 mi Calm Calm - N/A   Scattered Clouds
5:55 AM 42.1 °F 40.2 °F 39.9 °F 92% 30.06 in 10.0 mi SSE 3.5 mph - N/A   Clear
6:55 AM 42.1 °F 40.2 °F 39.9 °F 92% 30.06 in 10.0 mi SE 3.5 mph - N/A   Partly Cloudy
7:12 AM 42.8 °F - 41.0 °F 93% 30.07 in 10.0 mi Calm Calm - N/A   Mostly Cloudy
7:55 AM 48.0 °F - 45.0 °F 89% 30.09 in 10.0 mi Calm Calm - N/A   Overcast
8:55 AM 51.1 °F - 46.9 °F 86% 30.10 in 10.0 mi Variable 4.6 mph - N/A   Mostly Cloudy
9:55 AM 54.0 °F - 46.9 °F 77% 30.10 in 10.0 mi NNE 3.5 mph - N/A   Clear
10:55 AM 55.9 °F - 48.0 °F 75% 30.11 in 10.0 mi North 6.9 mph - N/A   Clear
11:55 AM 57.9 °F - 48.9 °F 72% 30.12 in 10.0 mi WNW 8.1 mph - N/A   Clear
12:55 PM 57.9 °F - 48.9 °F 72% 30.13 in 10.0 mi West 9.2 mph - N/A   Clear
1:55 PM 59.0 °F - 48.9 °F 69% 30.14 in 10.0 mi West 12.7 mph - N/A   Clear
2:55 PM 57.9 °F - 48.9 °F 72% 30.15 in 10.0 mi West 11.5 mph - N/A   Clear
3:46 PM 57.2 °F - 48.2 °F 72% 30.15 in 10.0 mi WNW 9.2 mph - N/A   Mostly Cloudy
3:55 PM 57.9 °F - 48.9 °F 72% 30.15 in 10.0 mi NW 10.4 mph - N/A   Scattered Clouds
4:55 PM 55.0 °F - 48.0 °F 77% 30.16 in 10.0 mi WNW 12.7 mph - N/A   Mostly Cloudy
5:55 PM 55.0 °F - 48.0 °F 77% 30.17 in 10.0 mi West 11.5 mph - N/A   Mostly Cloudy
6:24 PM 55.4 °F - 48.2 °F 77% 30.17 in 10.0 mi WNW 10.4 mph - N/A   Scattered Clouds
6:55 PM 53.1 °F - 46.9 °F 80% 30.17 in 10.0 mi West 6.9 mph - N/A   Partly Cloudy
7:10 PM 53.6 °F - 46.4 °F 77% 30.17 in 10.0 mi NW 10.4 mph - N/A   Mostly Cloudy
7:55 PM 51.1 °F - 46.0 °F 83% 30.17 in 10.0 mi NW 10.4 mph - N/A   Mostly Cloudy
8:55 PM 51.1 °F - 46.9 °F 86% 30.19 in 10.0 mi NW 6.9 mph - N/A   Overcast
9:55 PM 50.0 °F - 46.0 °F 86% 30.21 in 10.0 mi WNW 5.8 mph - N/A   Overcast
10:55 PM 50.0 °F - 45.0 °F 83% 30.21 in 10.0 mi NW 6.9 mph - N/A   Overcast
11:55 PM 48.2 °F - 44.6 °F 87% 30.21 in 10.0 mi WNW 4.6 mph - N/A   Overcast